Location: El Conde
(10.2895°N, 67.2409°W)
Time: 19:29:47
(UTC+00:00)

Ariane 3 Deb - Pass Details

Date: 19 May 2024
Orbit: 473 x 17626 km, 6.7° (Epoch: 12 June)

Event Time Altitude Azimuth Distance (km) Brightness Sun altitude
Rises 23:21:08 0° 254° (WSW) 4,486 7.9 -9.3°
Reaches altitude 10° 23:25:25 10° 244° (WSW) 2,476 6.3 -10.2°
Maximum altitude 23:29:35 30° 181° (S) 952 3.3 -11.2°
Enters shadow 23:31:26 17° 126° (SE) 1,258 3.5 -11.6°
